STARLINK-1300, 45374

Orbit data source: Space-Track

STARLINK-1300, 45374 is a payload satellite owned by SpaceX/Seattle (US) in LEO that was launched on Wed, 18 Mar 2020 UTC via an FALCON 9 launch vehicle from the Air Force Eastern Test Range (AFETR). Payload-class satellites include a variety of spacecraft equipped with specific instruments for various scientific and technological missions. These include communications satellites like Starlink; space stations such as the ISS; scientific satellites like the Hubble; Earth observation satellites from companies like Planet Labs, Umbra, and HawkEye 360; GPS; miniature CubeSats for education and research; and military/defense satellites.

Loading next visibility...
Identifier
45374, 2020-019Q
Orbit
LEO
Country
Flag of USUS
Related business
Manufacturer
SpaceX/Seattle
Mission
Operational Commercial Communications
Bus & Motor
STARLINK, Unknown motor
Mass
260 kg wet, ~248 kg dry
Launch date (UTC)
2020-03-18 (6 years ago)
Launch vehicle
FALCON 9
Launch site
Air Force Eastern Test Range (AFETR)
Object type
Payload
Rocket body
Debris
Shape & HBR
Box + 1 Pan, 10.1 m
Radar Cross Section
13.562 m², Large (>1 m²)

Expand to show TLE details & history
Last TLE update: 12 hours ago

TLE from 12 hours ago
0 STARLINK-1300
1 45374U 20019Q   26119.88723127  .00067786  00000-0  21544-2 0  9994
2 45374  53.1588 287.3486 0001391 337.1633  22.9307 15.32025260337599
Epoch: 2026-04-29T21:17Z
TLE epoch observation values (Epoch: 2026-04-29T21:17:36.781Z)
Latitude
0.00001°
Longitude
110.10361°
Altitude
469.794 km
Speed
7.633 km/s
True Right ascension
19h 09m 23s
True Declination
0° 00' 00"
Sunlit
Object was in daylight at epoch
Visualization orbit readout
Latitude
Unknown
Longitude
Unknown
Altitude
Unknown
Speed
Unknown
Apparent Right ascension
Unknown
Apparent Declination
Unknown
Sunlit
N/A
Visualization observer readout
Local Sidereal Time
16:38:15
Azimuth
Unknown
Elevation
Unknown
Doppler factor
Unknown
Orbital elements
Apogee altitude
470.98 km
Perigee altitude
469.075 km
Semi-major axis
6,848.164 km
Eccentricity
0.00014
Inclination
53.1588°
RAAN
287.3486°
Arg. of periapsis
337.1633°
True anomaly
22.93691°
Mean anomaly
22.9307°
Eccentric anomaly
22.93381°
Mean motion
3.82985 °/min
Orbital period
94 mins
BSTAR
0.0021544
Loading maneuver chart data...
Computing Atmospheric mass density...
Loading historical data...
Loading historical data...
Loading historical data...
Loading historical data...
Loading historical data...
Loading historical data...
Loading historical data...

Documentation

Showing up to 5 results
|